Location: Unspecified
(58.7730°N, 5.8460°E)
Time: 23:15:54
(UTC+02:00)

Cosmos 1674 - Visible Passes

Search period start: 01 May 2016 00:00
Search period end: 11 May 2016 00:00
Orbit: 500 x 527 km, 82.5° (Epoch: 01 May)

Date Brightness Start Highest point End Pass type
(mag) Time Alt. Az. Time Alt. Az. Time Alt. Az.
01 May 5.7 04:39:57 10° ESE 04:41:57 14° E 04:43:56 10° NE visible
02 May 5.8 04:24:56 10° ESE 04:26:25 12° E 04:27:54 10° ENE visible
03 May 6.0 04:10:22 10° E 04:10:54 10° E 04:11:25 10° ENE visible
08 May 4.5 04:24:26 10° SSE 04:27:44 29° E 04:31:03 10° NNE visible
09 May 4.8 04:09:00 10° SE 04:12:08 25° E 04:15:17 10° NNE visible
10 May 4.9 03:53:35 10° SE 03:56:32 22° E 03:59:29 10° NE visible
